owner,sensor,date,latitude,longitude,vertical_datum,wind_speed,wind_to_direction,wind_speed_of_gust,qcFlag 
COMPS,ioos:station:USF.COMPS:ARP:1,2019-03-01T00:00:00Z,28.4330,-82.6670,10.0,1.85,275.41,2.54,'1111122,1111122,1111122' 
COMPS,ioos:station:USF.COMPS:ARP:1,2019-03-01T00:06:00Z,28.4330,-82.6670,10.0,2.27,267.18,3.13,'1111122,1111122,1111122' 
COMPS,ioos:station:USF.COMPS:ARP:1,2019-03-01T00:12:00Z,28.4330,-82.6670,10.0,1.68,260.98,3.42,'1111122,1111122,1111122' 
COMPS,ioos:station:USF.COMPS:ARP:1,2019-03-01T00:18:00Z,28.4330,-82.6670,10.0,1.17,263.16,2.15,'1111122,1111122,1111122' 
COMPS,ioos:station:USF.COMPS:ARP:1,2019-03-01T00:24:00Z,28.4330,-82.6670,10.0,1.93,271.67,3.13,'1111122,1111122,1111122' 
COMPS,ioos:station:USF.COMPS:ARP:1,2019-03-01T00:30:00Z,28.4330,-82.6670,10.0,1.85,276.27,2.45,'1111122,1111122,1111122' 
COMPS,ioos:station:USF.COMPS:ARP:1,2019-03-01T00:36:00Z,28.4330,-82.6670,10.0,2.29,282.74,2.93,'1111122,1111122,1111122' 
COMPS,ioos:station:USF.COMPS:ARP:1,2019-03-01T00:42:00Z,28.4330,-82.6670,10.0,2.42,282.12,4.01,'1111122,1111122,1111122' 
COMPS,ioos:station:USF.COMPS:ARP:1,2019-03-01T00:48:00Z,28.4330,-82.6670,10.0,3.23,290.68,4.41,'1111122,1111122,1111122' 
COMPS,ioos:station:USF.COMPS:ARP:1,2019-03-01T00:54:00Z,28.4330,-82.6670,10.0,3.5,290.97,4.41,'1111122,1111122,1111122' 
COMPS,ioos:station:USF.COMPS:ARP:1,2019-03-01T01:00:00Z,28.4330,-82.6670,10.0,3.37,291.65,4.41,'1111122,1111122,1111122' 
COMPS,ioos:station:USF.COMPS:ARP:1,2019-03-01T01:06:00Z,28.4330,-82.6670,10.0,3.45,288.6,4.5,'1111122,1111122,1111122' 
COMPS,ioos:station:USF.COMPS:ARP:1,2019-03-01T01:12:00Z,28.4330,-82.6670,10.0,3.13,288.34,4.31,'1111122,1111122,1111122' 
COMPS,ioos:station:USF.COMPS:ARP:1,2019-03-01T01:18:00Z,28.4330,-82.6670,10.0,3.47,288.83,4.21,'1111122,1111122,1111122' 
COMPS,ioos:station:USF.COMPS:ARP:1,2019-03-01T01:24:00Z,28.4330,-82.6670,10.0,3.07,281.71,4.11,'1111122,1111122,1111122' 
COMPS,ioos:station:USF.COMPS:ARP:1,2019-03-01T01:30:00Z,28.4330,-82.6670,10.0,3.24,285.67,4.31,'1111122,1111122,1111122' 
COMPS,ioos:station:USF.COMPS:ARP:1,2019-03-01T01:36:00Z,28.4330,-82.6670,10.0,3.35,288.29,4.31,'1111122,1111122,1111122' 
COMPS,ioos:station:USF.COMPS:ARP:1,2019-03-01T01:42:00Z,28.4330,-82.6670,10.0,3.32,283.48,4.8,'1111122,1111122,1111122' 
COMPS,ioos:station:USF.COMPS:ARP:1,2019-03-01T01:48:00Z,28.4330,-82.6670,10.0,3.22,285.61,4.21,'1111122,1111122,1111122' 
COMPS,ioos:station:USF.COMPS:ARP:1,2019-03-01T01:54:00Z,28.4330,-82.6670,10.0,3.41,291.29,4.9,'1111122,1111122,1111122' 
COMPS,ioos:station:USF.COMPS:ARP:1,2019-03-01T02:00:00Z,28.4330,-82.6670,10.0,3.4,292.86,4.11,'1111122,1111122,1111122' 
COMPS,ioos:station:USF.COMPS:ARP:1,2019-03-01T02:06:00Z,28.4330,-82.6670,10.0,3.2,290.02,4.11,'1111122,1111122,1111122' 
COMPS,ioos:station:USF.COMPS:ARP:1,2019-03-01T02:12:00Z,28.4330,-82.6670,10.0,3.13,289.6,4.01,'1111122,1111122,1111122' 
COMPS,ioos:station:USF.COMPS:ARP:1,2019-03-01T02:18:00Z,28.4330,-82.6670,10.0,3.89,299.7,5.19,'1111122,1111122,1111122' 
COMPS,ioos:station:USF.COMPS:ARP:1,2019-03-01T02:24:00Z,28.4330,-82.6670,10.0,3.81,300.24,4.6,'1111122,1111122,1111122' 
COMPS,ioos:station:USF.COMPS:ARP:1,2019-03-01T02:30:00Z,28.4330,-82.6670,10.0,3.72,304.45,4.6,'1111122,1111122,1111122' 
COMPS,ioos:station:USF.COMPS:ARP:1,2019-03-01T02:36:00Z,28.4330,-82.6670,10.0,3.49,305.27,4.5,'1111122,1111122,1111122' 
COMPS,ioos:station:USF.COMPS:ARP:1,2019-03-01T02:42:00Z,28.4330,-82.6670,10.0,2.99,305.8,4.21,'1111122,1111122,1111122' 
COMPS,ioos:station:USF.COMPS:ARP:1,2019-03-01T02:48:00Z,28.4330,-82.6670,10.0,2.85,305.73,3.42,'1111122,1111122,1111122' 
COMPS,ioos:station:USF.COMPS:ARP:1,2019-03-01T02:54:00Z,28.4330,-82.6670,10.0,2.43,306.5,3.23,'1111122,1111122,1111122' 
COMPS,ioos:station:USF.COMPS:ARP:1,2019-03-01T03:00:00Z,28.4330,-82.6670,10.0,2.53,292.61,3.33,'1111122,1111122,1111122' 
COMPS,ioos:station:USF.COMPS:ARP:1,2019-03-01T03:06:00Z,28.4330,-82.6670,10.0,2.46,295.0,3.33,'1111122,1111122,1111122' 
COMPS,ioos:station:USF.COMPS:ARP:1,2019-03-01T03:12:00Z,28.4330,-82.6670,10.0,2.15,296.37,2.74,'1111122,1111122,1111122' 
COMPS,ioos:station:USF.COMPS:ARP:1,2019-03-01T03:18:00Z,28.4330,-82.6670,10.0,2.52,299.82,2.93,'1111122,1111122,1111122' 
COMPS,ioos:station:USF.COMPS:ARP:1,2019-03-01T03:24:00Z,28.4330,-82.6670,10.0,2.7,297.04,3.52,'1111122,1111122,1111122' 
COMPS,ioos:station:USF.COMPS:ARP:1,2019-03-01T03:30:00Z,28.4330,-82.6670,10.0,2.16,295.68,3.03,'1111122,1111122,1111122' 
COMPS,ioos:station:USF.COMPS:ARP:1,2019-03-01T03:36:00Z,28.4330,-82.6670,10.0,1.91,287.21,2.54,'1111122,1111122,1111122' 
COMPS,ioos:station:USF.COMPS:ARP:1,2019-03-01T03:42:00Z,28.4330,-82.6670,10.0,1.9,292.02,2.45,'1111122,1111122,1111122' 
COMPS,ioos:station:USF.COMPS:ARP:1,2019-03-01T03:48:00Z,28.4330,-82.6670,10.0,1.42,274.43,2.25,'1111122,1111122,1111122' 
COMPS,ioos:station:USF.COMPS:ARP:1,2019-03-01T03:54:00Z,28.4330,-82.6670,10.0,0.92,262.6,1.76,'1111122,1111122,1111122' 
COMPS,ioos:station:USF.COMPS:ARP:1,2019-03-01T04:00:00Z,28.4330,-82.6670,10.0,0.47,229.26,0.78,'1111122,1111122,1111122' 
COMPS,ioos:station:USF.COMPS:ARP:1,2019-03-01T04:06:00Z,28.4330,-82.6670,10.0,0.88,211.22,1.17,'1111122,1111122,1111122' 
COMPS,ioos:station:USF.COMPS:ARP:1,2019-03-01T04:12:00Z,28.4330,-82.6670,10.0,0.63,216.8,0.97,'1111122,1111122,1111122' 
COMPS,ioos:station:USF.COMPS:ARP:1,2019-03-01T04:18:00Z,28.4330,-82.6670,10.0,0.25,211.39,0.58,'1111122,1111122,1111122' 
COMPS,ioos:station:USF.COMPS:ARP:1,2019-03-01T04:24:00Z,28.4330,-82.6670,10.0,0.19,109.67,0.49,'1111122,1111122,1111122' 
COMPS,ioos:station:USF.COMPS:ARP:1,2019-03-01T04:30:00Z,28.4330,-82.6670,10.0,0.56,82.31,0.78,'1111122,1111122,1111122' 
COMPS,ioos:station:USF.COMPS:ARP:1,2019-03-01T04:36:00Z,28.4330,-82.6670,10.0,1.03,127.4,1.46,'1111122,1111122,1111122' 
COMPS,ioos:station:USF.COMPS:ARP:1,2019-03-01T04:42:00Z,28.4330,-82.6670,10.0,0.95,136.92,1.56,'1111122,1111122,1111122' 
COMPS,ioos:station:USF.COMPS:ARP:1,2019-03-01T04:48:00Z,28.4330,-82.6670,10.0,0.36,145.99,1.07,'1111122,1111122,1111122' 
COMPS,ioos:station:USF.COMPS:ARP:1,2019-03-01T04:54:00Z,28.4330,-82.6670,10.0,0.39,146.6,0.78,'1111122,1111122,1111122' 
COMPS,ioos:station:USF.COMPS:ARP:1,2019-03-01T05:00:00Z,28.4330,-82.6670,10.0,0.43,90.42,0.78,'1111122,1111122,1111122' 
COMPS,ioos:station:USF.COMPS:ARP:1,2019-03-01T05:06:00Z,28.4330,-82.6670,10.0,0.54,124.83,1.17,'1111122,1111122,1111122' 
COMPS,ioos:station:USF.COMPS:ARP:1,2019-03-01T05:12:00Z,28.4330,-82.6670,10.0,0.81,138.46,1.76,'1111122,1111122,1111122' 
COMPS,ioos:station:USF.COMPS:ARP:1,2019-03-01T05:18:00Z,28.4330,-82.6670,10.0,0.51,127.74,1.07,'1111122,1111122,1111122' 
COMPS,ioos:station:USF.COMPS:ARP:1,2019-03-01T05:24:00Z,28.4330,-82.6670,10.0,0.34,150.29,1.56,'1111122,1111122,1111122' 
COMPS,ioos:station:USF.COMPS:ARP:1,2019-03-01T05:30:00Z,28.4330,-82.6670,10.0,0.49,166.34,1.27,'1111122,1111122,1111122' 
COMPS,ioos:station:USF.COMPS:ARP:1,2019-03-01T05:36:00Z,28.4330,-82.6670,10.0,0.75,172.06,1.66,'1111122,1111122,1111122' 
COMPS,ioos:station:USF.COMPS:ARP:1,2019-03-01T05:42:00Z,28.4330,-82.6670,10.0,0.47,181.12,1.27,'1111122,1111122,1111122' 
COMPS,ioos:station:USF.COMPS:ARP:1,2019-03-01T05:48:00Z,28.4330,-82.6670,10.0,0.43,180.46,0.97,'1111122,1111122,1111122' 
COMPS,ioos:station:USF.COMPS:ARP:1,2019-03-01T05:54:00Z,28.4330,-82.6670,10.0,0.4,185.09,1.27,'1111122,1111122,1111122' 
COMPS,ioos:station:USF.COMPS:ARP:1,2019-03-01T06:00:00Z,28.4330,-82.6670,10.0,0.47,189.74,1.46,'1111122,1111122,1111122' 
COMPS,ioos:station:USF.COMPS:ARP:1,2019-03-01T06:06:00Z,28.4330,-82.6670,10.0,0.18,229.74,0.97,'1111122,1111122,1111122' 
COMPS,ioos:station:USF.COMPS:ARP:1,2019-03-01T06:12:00Z,28.4330,-82.6670,10.0,0.32,211.32,0.68,'1111122,1111122,1111122' 
COMPS,ioos:station:USF.COMPS:ARP:1,2019-03-01T06:18:00Z,28.4330,-82.6670,10.0,0.22,211.43,0.68,'1111122,1111122,1111122' 
COMPS,ioos:station:USF.COMPS:ARP:1,2019-03-01T06:24:00Z,28.4330,-82.6670,10.0,0.28,266.99,0.58,'1111122,1111122,1111122' 
COMPS,ioos:station:USF.COMPS:ARP:1,2019-03-01T06:30:00Z,28.4330,-82.6670,10.0,0.57,242.19,0.97,'1111122,1111122,1111122' 
COMPS,ioos:station:USF.COMPS:ARP:1,2019-03-01T06:36:00Z,28.4330,-82.6670,10.0,0.66,224.9,1.07,'1111122,1111122,1111122' 
COMPS,ioos:station:USF.COMPS:ARP:1,2019-03-01T06:42:00Z,28.4330,-82.6670,10.0,0.54,214.61,1.07,'1111122,1111122,1111122' 
COMPS,ioos:station:USF.COMPS:ARP:1,2019-03-01T06:48:00Z,28.4330,-82.6670,10.0,0.41,191.11,0.88,'1111122,1111122,1111122' 
COMPS,ioos:station:USF.COMPS:ARP:1,2019-03-01T06:54:00Z,28.4330,-82.6670,10.0,0.48,201.94,0.88,'1111122,1111122,1111122' 
COMPS,ioos:station:USF.COMPS:ARP:1,2019-03-01T07:00:00Z,28.4330,-82.6670,10.0,0.27,87.59,0.78,'1111122,1111122,1111122' 
COMPS,ioos:station:USF.COMPS:ARP:1,2019-03-01T07:06:00Z,28.4330,-82.6670,10.0,0.5,91.02,0.68,'1111122,1111122,1111122' 
COMPS,ioos:station:USF.COMPS:ARP:1,2019-03-01T07:12:00Z,28.4330,-82.6670,10.0,0.24,124.72,0.68,'1111122,1111122,1111122' 
COMPS,ioos:station:USF.COMPS:ARP:1,2019-03-01T07:18:00Z,28.4330,-82.6670,10.0,0.32,195.54,0.68,'1111122,1111122,1111122' 
COMPS,ioos:station:USF.COMPS:ARP:1,2019-03-01T07:24:00Z,28.4330,-82.6670,10.0,0.49,174.54,0.88,'1111122,1111122,1111122' 
COMPS,ioos:station:USF.COMPS:ARP:1,2019-03-01T07:30:00Z,28.4330,-82.6670,10.0,0.4,82.68,0.68,'1111122,1111122,1111122' 
COMPS,ioos:station:USF.COMPS:ARP:1,2019-03-01T07:36:00Z,28.4330,-82.6670,10.0,0.57,70.46,0.88,'1111122,1111122,1111122' 
COMPS,ioos:station:USF.COMPS:ARP:1,2019-03-01T07:42:00Z,28.4330,-82.6670,10.0,0.27,65.93,0.68,'1111122,1111122,1111122' 
COMPS,ioos:station:USF.COMPS:ARP:1,2019-03-01T07:48:00Z,28.4330,-82.6670,10.0,0.43,64.49,0.68,'1111122,1111122,1111122' 
COMPS,ioos:station:USF.COMPS:ARP:1,2019-03-01T07:54:00Z,28.4330,-82.6670,10.0,0.51,76.57,0.78,'1111122,1111122,1111122' 
COMPS,ioos:station:USF.COMPS:ARP:1,2019-03-01T08:00:00Z,28.4330,-82.6670,10.0,0.73,83.04,0.97,'1111122,1111122,1111122' 
COMPS,ioos:station:USF.COMPS:ARP:1,2019-03-01T08:06:00Z,28.4330,-82.6670,10.0,0.42,104.92,0.97,'1111122,1111122,1111122' 
COMPS,ioos:station:USF.COMPS:ARP:1,2019-03-01T08:12:00Z,28.4330,-82.6670,10.0,0.53,74.4,0.78,'1111122,1111122,1111122' 
COMPS,ioos:station:USF.COMPS:ARP:1,2019-03-01T08:18:00Z,28.4330,-82.6670,10.0,0.84,67.96,1.17,'1111122,1111122,1111122' 
COMPS,ioos:station:USF.COMPS:ARP:1,2019-03-01T08:24:00Z,28.4330,-82.6670,10.0,0.9,86.6,1.27,'1111122,1111122,1111122' 
COMPS,ioos:station:USF.COMPS:ARP:1,2019-03-01T08:30:00Z,28.4330,-82.6670,10.0,0.59,95.02,0.97,'1111122,1111122,1111122' 
COMPS,ioos:station:USF.COMPS:ARP:1,2019-03-01T08:36:00Z,28.4330,-82.6670,10.0,0.81,82.89,1.07,'1111122,1111122,1111122' 
COMPS,ioos:station:USF.COMPS:ARP:1,2019-03-01T08:42:00Z,28.4330,-82.6670,10.0,1.09,75.82,1.56,'1111122,1111122,1111122' 
COMPS,ioos:station:USF.COMPS:ARP:1,2019-03-01T08:48:00Z,28.4330,-82.6670,10.0,1.21,71.29,1.56,'1111122,1111122,1111122' 
COMPS,ioos:station:USF.COMPS:ARP:1,2019-03-01T08:54:00Z,28.4330,-82.6670,10.0,0.61,93.72,0.88,'1111122,1111122,1111122' 
COMPS,ioos:station:USF.COMPS:ARP:1,2019-03-01T09:00:00Z,28.4330,-82.6670,10.0,0.65,82.02,0.88,'1111122,1111122,1111122' 
COMPS,ioos:station:USF.COMPS:ARP:1,2019-03-01T09:06:00Z,28.4330,-82.6670,10.0,0.28,88.35,0.58,'1111122,1111122,1111122' 
COMPS,ioos:station:USF.COMPS:ARP:1,2019-03-01T09:12:00Z,28.4330,-82.6670,10.0,0.48,80.1,0.68,'1111122,1111122,1111122' 
COMPS,ioos:station:USF.COMPS:ARP:1,2019-03-01T09:18:00Z,28.4330,-82.6670,10.0,0.54,84.3,0.78,'1111122,1111122,1111122' 
COMPS,ioos:station:USF.COMPS:ARP:1,2019-03-01T09:24:00Z,28.4330,-82.6670,10.0,0.58,95.97,1.07,'1111122,1111122,1111122' 
COMPS,ioos:station:USF.COMPS:ARP:1,2019-03-01T09:30:00Z,28.4330,-82.6670,10.0,0.9,78.17,1.17,'1111122,1111122,1111122' 
COMPS,ioos:station:USF.COMPS:ARP:1,2019-03-01T09:36:00Z,28.4330,-82.6670,10.0,0.74,82.55,0.97,'1111122,1111122,1111122' 
COMPS,ioos:station:USF.COMPS:ARP:1,2019-03-01T09:42:00Z,28.4330,-82.6670,10.0,0.74,84.55,1.07,'1111122,1111122,1111122' 
COMPS,ioos:station:USF.COMPS:ARP:1,2019-03-01T09:48:00Z,28.4330,-82.6670,10.0,0.73,69.9,0.97,'1111122,1111122,1111122' 
COMPS,ioos:station:USF.COMPS:ARP:1,2019-03-01T09:54:00Z,28.4330,-82.6670,10.0,0.29,80.9,0.58,'1111122,1111122,1111122' 
COMPS,ioos:station:USF.COMPS:ARP:1,2019-03-01T10:00:00Z,28.4330,-82.6670,10.0,1.16,99.25,1.76,'1111122,1111122,1111122' 
COMPS,ioos:station:USF.COMPS:ARP:1,2019-03-01T10:06:00Z,28.4330,-82.6670,10.0,1.25,95.99,1.86,'1111122,1111122,1111122' 
COMPS,ioos:station:USF.COMPS:ARP:1,2019-03-01T10:12:00Z,28.4330,-82.6670,10.0,0.59,121.94,1.07,'1111122,1111122,1111122' 
COMPS,ioos:station:USF.COMPS:ARP:1,2019-03-01T10:18:00Z,28.4330,-82.6670,10.0,0.99,132.83,2.35,'1111122,1111122,1111122' 
COMPS,ioos:station:USF.COMPS:ARP:1,2019-03-01T10:24:00Z,28.4330,-82.6670,10.0,1.45,101.91,2.25,'1111122,1111122,1111122' 
COMPS,ioos:station:USF.COMPS:ARP:1,2019-03-01T10:30:00Z,28.4330,-82.6670,10.0,1.12,128.14,2.54,'1111122,1111122,1111122' 
COMPS,ioos:station:USF.COMPS:ARP:1,2019-03-01T10:36:00Z,28.4330,-82.6670,10.0,1.79,112.73,2.54,'1111122,1111122,1111122' 
COMPS,ioos:station:USF.COMPS:ARP:1,2019-03-01T10:42:00Z,28.4330,-82.6670,10.0,1.6,114.64,2.84,'1111122,1111122,1111122' 
COMPS,ioos:station:USF.COMPS:ARP:1,2019-03-01T10:48:00Z,28.4330,-82.6670,10.0,2.01,95.29,2.64,'1111122,1111122,1111122' 
COMPS,ioos:station:USF.COMPS:ARP:1,2019-03-01T10:54:00Z,28.4330,-82.6670,10.0,1.91,96.28,2.74,'1111122,1111122,1111122' 
COMPS,ioos:station:USF.COMPS:ARP:1,2019-03-01T11:00:00Z,28.4330,-82.6670,10.0,2.3,108.36,3.13,'1111122,1111122,1111122' 
COMPS,ioos:station:USF.COMPS:ARP:1,2019-03-01T11:06:00Z,28.4330,-82.6670,10.0,1.03,141.25,2.45,'1111122,1111122,1111122' 
COMPS,ioos:station:USF.COMPS:ARP:1,2019-03-01T11:12:00Z,28.4330,-82.6670,10.0,1.41,116.98,2.35,'1111122,1111122,1111122' 
COMPS,ioos:station:USF.COMPS:ARP:1,2019-03-01T11:18:00Z,28.4330,-82.6670,10.0,1.76,112.05,2.45,'1111122,1111122,1111122' 
COMPS,ioos:station:USF.COMPS:ARP:1,2019-03-01T11:24:00Z,28.4330,-82.6670,10.0,2.25,96.33,3.72,'1111122,1111122,1111122' 
COMPS,ioos:station:USF.COMPS:ARP:1,2019-03-01T11:30:00Z,28.4330,-82.6670,10.0,1.76,108.6,2.84,'1111122,1111122,1111122' 
COMPS,ioos:station:USF.COMPS:ARP:1,2019-03-01T11:36:00Z,28.4330,-82.6670,10.0,1.34,153.03,2.54,'1111122,1111122,1111122' 
COMPS,ioos:station:USF.COMPS:ARP:1,2019-03-01T11:42:00Z,28.4330,-82.6670,10.0,1.1,154.43,2.35,'1111122,1111122,1111122' 
COMPS,ioos:station:USF.COMPS:ARP:1,2019-03-01T11:48:00Z,28.4330,-82.6670,10.0,0.51,144.34,1.56,'1111122,1111122,1111122' 
COMPS,ioos:station:USF.COMPS:ARP:1,2019-03-01T11:54:00Z,28.4330,-82.6670,10.0,0.44,106.65,1.07,'1111122,1111122,1111122' 
COMPS,ioos:station:USF.COMPS:ARP:1,2019-03-01T12:00:00Z,28.4330,-82.6670,10.0,0.69,95.53,1.56,'1111122,1111122,1111122' 
COMPS,ioos:station:USF.COMPS:ARP:1,2019-03-01T12:06:00Z,28.4330,-82.6670,10.0,1.13,66.27,1.56,'1111122,1111122,1111122' 
COMPS,ioos:station:USF.COMPS:ARP:1,2019-03-01T12:12:00Z,28.4330,-82.6670,10.0,0.6,124.71,1.17,'1111122,1111122,1111122' 
COMPS,ioos:station:USF.COMPS:ARP:1,2019-03-01T12:18:00Z,28.4330,-82.6670,10.0,0.87,250.39,1.27,'1111122,1111122,1111122' 
COMPS,ioos:station:USF.COMPS:ARP:1,2019-03-01T12:24:00Z,28.4330,-82.6670,10.0,0.04,246.8,0.58,'1111122,1111122,1111122' 
COMPS,ioos:station:USF.COMPS:ARP:1,2019-03-01T12:36:00Z,28.4330,-82.6670,10.0,0.03,16.67,0.29,'1111122,1111122,1111122' 
COMPS,ioos:station:USF.COMPS:ARP:1,2019-03-01T12:42:00Z,28.4330,-82.6670,10.0,0.69,103.99,1.07,'1111122,1111122,1111122' 
COMPS,ioos:station:USF.COMPS:ARP:1,2019-03-01T12:48:00Z,28.4330,-82.6670,10.0,0.39,119.22,0.78,'1111122,1111122,1111122' 
COMPS,ioos:station:USF.COMPS:ARP:1,2019-03-01T12:54:00Z,28.4330,-82.6670,10.0,0.18,118.34,0.88,'1111122,1111122,1111122' 
COMPS,ioos:station:USF.COMPS:ARP:1,2019-03-01T13:00:00Z,28.4330,-82.6670,10.0,0.32,95.42,0.97,'1111122,1111122,1111122' 
COMPS,ioos:station:USF.COMPS:ARP:1,2019-03-01T13:06:00Z,28.4330,-82.6670,10.0,0.46,82.37,1.17,'1111122,1111122,1111122' 
COMPS,ioos:station:USF.COMPS:ARP:1,2019-03-01T13:12:00Z,28.4330,-82.6670,10.0,1.3,74.83,1.66,'1111122,1111122,1111122' 
COMPS,ioos:station:USF.COMPS:ARP:1,2019-03-01T13:18:00Z,28.4330,-82.6670,10.0,1.16,88.29,1.76,'1111122,1111122,1111122' 
COMPS,ioos:station:USF.COMPS:ARP:1,2019-03-01T13:24:00Z,28.4330,-82.6670,10.0,1.06,81.89,1.46,'1111122,1111122,1111122' 
COMPS,ioos:station:USF.COMPS:ARP:1,2019-03-01T13:30:00Z,28.4330,-82.6670,10.0,1.33,90.73,1.66,'1111122,1111122,1111122' 
COMPS,ioos:station:USF.COMPS:ARP:1,2019-03-01T13:36:00Z,28.4330,-82.6670,10.0,1.54,97.18,2.15,'1111122,1111122,1111122' 
COMPS,ioos:station:USF.COMPS:ARP:1,2019-03-01T13:42:00Z,28.4330,-82.6670,10.0,1.84,98.33,2.64,'1111122,1111122,1111122' 
COMPS,ioos:station:USF.COMPS:ARP:1,2019-03-01T13:48:00Z,28.4330,-82.6670,10.0,1.7,89.56,2.74,'1111122,1111122,1111122' 
COMPS,ioos:station:USF.COMPS:ARP:1,2019-03-01T13:54:00Z,28.4330,-82.6670,10.0,1.77,96.49,2.64,'1111122,1111122,1111122' 
COMPS,ioos:station:USF.COMPS:ARP:1,2019-03-01T14:00:00Z,28.4330,-82.6670,10.0,1.88,91.24,3.03,'1111122,1111122,1111122' 
COMPS,ioos:station:USF.COMPS:ARP:1,2019-03-01T14:06:00Z,28.4330,-82.6670,10.0,2.26,104.09,3.72,'1111122,1111122,1111122' 
COMPS,ioos:station:USF.COMPS:ARP:1,2019-03-01T14:12:00Z,28.4330,-82.6670,10.0,1.65,101.5,2.74,'1111122,1111122,1111122' 
COMPS,ioos:station:USF.COMPS:ARP:1,2019-03-01T14:18:00Z,28.4330,-82.6670,10.0,1.42,116.48,2.25,'1111122,1111122,1111122' 
COMPS,ioos:station:USF.COMPS:ARP:1,2019-03-01T14:24:00Z,28.4330,-82.6670,10.0,1.32,105.17,2.64,'1111122,1111122,1111122' 
COMPS,ioos:station:USF.COMPS:ARP:1,2019-03-01T14:30:00Z,28.4330,-82.6670,10.0,1.57,103.75,2.15,'1111122,1111122,1111122' 
COMPS,ioos:station:USF.COMPS:ARP:1,2019-03-01T14:36:00Z,28.4330,-82.6670,10.0,1.53,132.53,3.03,'1111122,1111122,1111122' 
COMPS,ioos:station:USF.COMPS:ARP:1,2019-03-01T14:42:00Z,28.4330,-82.6670,10.0,1.3,120.78,2.45,'1111122,1111122,1111122' 
COMPS,ioos:station:USF.COMPS:ARP:1,2019-03-01T14:48:00Z,28.4330,-82.6670,10.0,1.71,131.27,2.93,'1111122,1111122,1111122' 
COMPS,ioos:station:USF.COMPS:ARP:1,2019-03-01T14:54:00Z,28.4330,-82.6670,10.0,1.76,130.22,2.74,'1111122,1111122,1111122' 
COMPS,ioos:station:USF.COMPS:ARP:1,2019-03-01T15:00:00Z,28.4330,-82.6670,10.0,1.54,121.4,3.23,'1111122,1111122,1111122' 
COMPS,ioos:station:USF.COMPS:ARP:1,2019-03-01T15:06:00Z,28.4330,-82.6670,10.0,1.46,117.31,3.42,'1111122,1111122,1111122' 
COMPS,ioos:station:USF.COMPS:ARP:1,2019-03-01T15:12:00Z,28.4330,-82.6670,10.0,1.69,95.02,2.93,'1111122,1111122,1111122' 
COMPS,ioos:station:USF.COMPS:ARP:1,2019-03-01T15:18:00Z,28.4330,-82.6670,10.0,1.81,121.39,3.23,'1111122,1111122,1111122' 
COMPS,ioos:station:USF.COMPS:ARP:1,2019-03-01T15:24:00Z,28.4330,-82.6670,10.0,1.58,127.59,4.11,'1111122,1111122,1111122' 
COMPS,ioos:station:USF.COMPS:ARP:1,2019-03-01T15:30:00Z,28.4330,-82.6670,10.0,1.73,137.61,3.62,'1111122,1111122,1111122' 
COMPS,ioos:station:USF.COMPS:ARP:1,2019-03-01T15:36:00Z,28.4330,-82.6670,10.0,1.8,112.64,3.13,'1111122,1111122,1111122' 
COMPS,ioos:station:USF.COMPS:ARP:1,2019-03-01T15:42:00Z,28.4330,-82.6670,10.0,1.43,120.98,3.82,'1111122,1111122,1111122' 
COMPS,ioos:station:USF.COMPS:ARP:1,2019-03-01T15:48:00Z,28.4330,-82.6670,10.0,1.7,156.38,3.42,'1111122,1111122,1111122' 
COMPS,ioos:station:USF.COMPS:ARP:1,2019-03-01T15:54:00Z,28.4330,-82.6670,10.0,1.8,123.89,2.93,'1111122,1111122,1111122' 
COMPS,ioos:station:USF.COMPS:ARP:1,2019-03-01T16:00:00Z,28.4330,-82.6670,10.0,1.7,159.05,3.62,'1111122,1111122,1111122' 
COMPS,ioos:station:USF.COMPS:ARP:1,2019-03-01T16:06:00Z,28.4330,-82.6670,10.0,1.54,130.95,4.01,'1111122,1111122,1111122' 
COMPS,ioos:station:USF.COMPS:ARP:1,2019-03-01T16:12:00Z,28.4330,-82.6670,10.0,1.37,148.71,3.33,'1111122,1111122,1111122' 
COMPS,ioos:station:USF.COMPS:ARP:1,2019-03-01T16:18:00Z,28.4330,-82.6670,10.0,1.52,189.74,2.74,'1111122,1111122,1111122' 
COMPS,ioos:station:USF.COMPS:ARP:1,2019-03-01T16:24:00Z,28.4330,-82.6670,10.0,2.05,133.26,3.82,'1111122,1111122,1111122' 
COMPS,ioos:station:USF.COMPS:ARP:1,2019-03-01T16:30:00Z,28.4330,-82.6670,10.0,2.03,106.75,3.42,'1111122,1111122,1111122' 
COMPS,ioos:station:USF.COMPS:ARP:1,2019-03-01T16:36:00Z,28.4330,-82.6670,10.0,1.54,169.41,3.42,'1111122,1111122,1111122' 
COMPS,ioos:station:USF.COMPS:ARP:1,2019-03-01T16:42:00Z,28.4330,-82.6670,10.0,1.16,185.73,2.64,'1111122,1111122,1111122' 
COMPS,ioos:station:USF.COMPS:ARP:1,2019-03-01T16:48:00Z,28.4330,-82.6670,10.0,1.06,200.09,1.76,'1111122,1111122,1111122' 
COMPS,ioos:station:USF.COMPS:ARP:1,2019-03-01T16:54:00Z,28.4330,-82.6670,10.0,1.23,163.71,2.64,'1111122,1111122,1111122' 
COMPS,ioos:station:USF.COMPS:ARP:1,2019-03-01T17:00:00Z,28.4330,-82.6670,10.0,1.08,171.22,2.74,'1111122,1111122,1111122' 
COMPS,ioos:station:USF.COMPS:ARP:1,2019-03-01T17:06:00Z,28.4330,-82.6670,10.0,1.1,178.2,2.84,'1111122,1111122,1111122' 
COMPS,ioos:station:USF.COMPS:ARP:1,2019-03-01T17:12:00Z,28.4330,-82.6670,10.0,1.45,197.44,3.62,'1111122,1111122,1111122' 
COMPS,ioos:station:USF.COMPS:ARP:1,2019-03-01T17:18:00Z,28.4330,-82.6670,10.0,1.06,243.67,2.35,'1111122,1111122,1111122' 
COMPS,ioos:station:USF.COMPS:ARP:1,2019-03-01T17:24:00Z,28.4330,-82.6670,10.0,1.45,259.25,2.45,'1111122,1111122,1111122' 
COMPS,ioos:station:USF.COMPS:ARP:1,2019-03-01T17:30:00Z,28.4330,-82.6670,10.0,0.83,317.11,1.95,'1111122,1111122,1111122' 
COMPS,ioos:station:USF.COMPS:ARP:1,2019-03-01T17:36:00Z,28.4330,-82.6670,10.0,1.97,309.79,3.82,'1111122,1111122,1111122' 
COMPS,ioos:station:USF.COMPS:ARP:1,2019-03-01T17:42:00Z,28.4330,-82.6670,10.0,3.21,305.42,4.31,'1111122,1111122,1111122' 
COMPS,ioos:station:USF.COMPS:ARP:1,2019-03-01T17:48:00Z,28.4330,-82.6670,10.0,3.34,289.71,4.5,'1111122,1111122,1111122' 
COMPS,ioos:station:USF.COMPS:ARP:1,2019-03-01T17:54:00Z,28.4330,-82.6670,10.0,3.85,289.99,4.8,'1111122,1111122,1111122' 
COMPS,ioos:station:USF.COMPS:ARP:1,2019-03-01T18:00:00Z,28.4330,-82.6670,10.0,3.9,286.85,4.9,'1111122,1111122,1111122' 
COMPS,ioos:station:USF.COMPS:ARP:1,2019-03-01T18:06:00Z,28.4330,-82.6670,10.0,3.48,287.06,4.5,'1111122,1111122,1111122' 
COMPS,ioos:station:USF.COMPS:ARP:1,2019-03-01T18:12:00Z,28.4330,-82.6670,10.0,3.25,290.1,4.7,'1111122,1111122,1111122' 
COMPS,ioos:station:USF.COMPS:ARP:1,2019-03-01T18:18:00Z,28.4330,-82.6670,10.0,2.44,294.44,3.62,'1111122,1111122,1111122' 
COMPS,ioos:station:USF.COMPS:ARP:1,2019-03-01T18:24:00Z,28.4330,-82.6670,10.0,2.59,294.64,3.62,'1111122,1111122,1111122' 
COMPS,ioos:station:USF.COMPS:ARP:1,2019-03-01T18:30:00Z,28.4330,-82.6670,10.0,2.77,295.65,3.72,'1111122,1111122,1111122' 
COMPS,ioos:station:USF.COMPS:ARP:1,2019-03-01T18:36:00Z,28.4330,-82.6670,10.0,3.23,296.0,3.91,'1111122,1111122,1111122' 
COMPS,ioos:station:USF.COMPS:ARP:1,2019-03-01T18:42:00Z,28.4330,-82.6670,10.0,3.03,296.76,4.41,'1111122,1111122,1111122' 
COMPS,ioos:station:USF.COMPS:ARP:1,2019-03-01T18:48:00Z,28.4330,-82.6670,10.0,3.44,298.24,4.7,'1111122,1111122,1111122' 
COMPS,ioos:station:USF.COMPS:ARP:1,2019-03-01T18:54:00Z,28.4330,-82.6670,10.0,3.03,297.5,3.72,'1111122,1111122,1111122' 
COMPS,ioos:station:USF.COMPS:ARP:1,2019-03-01T19:00:00Z,28.4330,-82.6670,10.0,3.38,302.46,4.5,'1111122,1111122,1111122' 
COMPS,ioos:station:USF.COMPS:ARP:1,2019-03-01T19:06:00Z,28.4330,-82.6670,10.0,4.76,301.4,5.97,'1111122,1111122,1111122' 
COMPS,ioos:station:USF.COMPS:ARP:1,2019-03-01T19:12:00Z,28.4330,-82.6670,10.0,4.92,297.96,5.97,'1111122,1111122,1111122' 
COMPS,ioos:station:USF.COMPS:ARP:1,2019-03-01T19:18:00Z,28.4330,-82.6670,10.0,4.23,291.36,5.29,'1111122,1111122,1111122' 
COMPS,ioos:station:USF.COMPS:ARP:1,2019-03-01T19:24:00Z,28.4330,-82.6670,10.0,4.25,295.89,5.39,'1111122,1111122,1111122' 
COMPS,ioos:station:USF.COMPS:ARP:1,2019-03-01T19:30:00Z,28.4330,-82.6670,10.0,4.52,289.06,6.17,'1111122,1111122,1111122' 
COMPS,ioos:station:USF.COMPS:ARP:1,2019-03-01T19:36:00Z,28.4330,-82.6670,10.0,5.35,296.04,6.46,'1111122,1111122,1111122' 